TimePDT,TemperatureF,Dew PointF,Humidity,Sea Level PressureIn,VisibilityMPH,Wind Direction,Wind SpeedMPH,Gust SpeedMPH,PrecipitationIn,Events,Conditions,WindDirDegrees,DateUTC
12:53 AM,69.1,30.9,24,29.86,10.0,NNW,6.9,-,N/A,,Clear,330,2012-10-07 07:53:00
1:53 AM,69.1,28.0,22,29.86,10.0,NNE,6.9,-,N/A,,Clear,20,2012-10-07 08:53:00
2:53 AM,66.9,28.9,24,29.87,10.0,Calm,Calm,-,N/A,,Clear,0,2012-10-07 09:53:00
3:53 AM,68.0,30.0,24,29.87,10.0,WSW,5.8,-,N/A,,Clear,240,2012-10-07 10:53:00
4:53 AM,66.0,27.0,23,29.89,10.0,SW,5.8,-,N/A,,Clear,230,2012-10-07 11:53:00
5:53 AM,64.0,28.0,26,29.91,10.0,Calm,Calm,-,N/A,,Clear,0,2012-10-07 12:53:00
6:53 AM,63.0,28.0,27,29.94,10.0,WNW,3.5,-,N/A,,Clear,290,2012-10-07 13:53:00
7:53 AM,66.9,26.1,21,29.96,10.0,WSW,3.5,-,N/A,,Clear,240,2012-10-07 14:53:00
8:53 AM,71.1,21.9,16,29.99,10.0,SSW,5.8,-,N/A,,Clear,210,2012-10-07 15:53:00
9:53 AM,73.4,26.6,18,29.99,10.0,South,4.6,-,N/A,,Clear,170,2012-10-07 16:53:00
10:53 AM,77.0,19.9,12,29.99,10.0,SSW,5.8,-,N/A,,Clear,200,2012-10-07 17:53:00
11:53 AM,80.1,16.0,9,29.96,10.0,ESE,10.4,-,N/A,,Clear,120,2012-10-07 18:53:00
12:53 PM,82.0,16.0,8,29.94,10.0,ESE,9.2,18.4,N/A,,Clear,110,2012-10-07 19:53:00
1:53 PM,82.9,17.1,9,29.91,10.0,ESE,9.2,-,N/A,,Clear,110,2012-10-07 20:53:00
2:53 PM,82.9,19.0,9,29.90,10.0,ESE,8.1,-,N/A,,Clear,110,2012-10-07 21:53:00
3:53 PM,82.9,19.9,10,29.88,10.0,SE,8.1,-,N/A,,Clear,140,2012-10-07 22:53:00
4:53 PM,84.0,21.0,10,29.87,10.0,SE,6.9,-,N/A,,Clear,130,2012-10-07 23:53:00
5:53 PM,82.0,21.9,11,29.87,10.0,Calm,Calm,-,N/A,,Clear,0,2012-10-08 00:53:00
6:53 PM,81.0,25.0,13,29.88,10.0,SW,3.5,-,N/A,,Clear,220,2012-10-08 01:53:00
7:53 PM,75.9,28.0,17,29.89,10.0,Calm,Calm,-,N/A,,Clear,0,2012-10-08 02:53:00
8:53 PM,73.9,28.9,19,29.90,10.0,Calm,Calm,-,N/A,,Clear,0,2012-10-08 03:53:00
9:53 PM,72.0,30.0,21,29.90,10.0,WNW,4.6,-,N/A,,Clear,300,2012-10-08 04:53:00
10:53 PM,69.1,28.9,22,29.90,10.0,Calm,Calm,-,N/A,,Clear,0,2012-10-08 05:53:00
11:53 PM,66.9,28.9,24,29.90,10.0,NW,3.5,-,N/A,,Clear,310,2012-10-08 06:53:00